Overview Statistics Trail Chart Weather Telemetry Raw packets
 

This is the latest recevied weather packets stored in our database for station/object PU5FJO-13. If no packets are shown the sender has not sent any weather packets the latest 10 day(s).

<< 29 30 31 32 33 34 35 >>
Time Temp. Humidity Pressure Rain* Wind** Luminosity Snow
1777387566 20.56° C 46% 1020.5 hPa - - - -
1777386966 20.56° C 46% 1020.6 hPa - - - -
1777386366 20° C 47% 1020.7 hPa - - - -
1777385766 20° C 48% 1020.8 hPa - - - -
1777385166 20° C 48% 1021.1 hPa - - - -
1777384566 19.44° C 48% 1021.1 hPa - - - -
1777383966 19.44° C 48% 1021.2 hPa - - - -
1777383366 19.44° C 50% 1021.3 hPa - - - -
1777382766 18.89° C 48% 1021.4 hPa - - - -
1777382166 18.89° C 51% 1021.4 hPa - - - -
1777381566 18.89° C 50% 1021.4 hPa - - - -
1777380966 18.89° C 50% 1021.2 hPa - - - -
1777380366 18.33° C 49% 1021.1 hPa - - - -
1777379766 17.78° C 52% 1021.1 hPa - - - -
1777379166 17.78° C 54% 1021.1 hPa - - - -
1777378566 17.78° C 56% 1021.2 hPa - - - -
1777377966 17.22° C 56% 1021.2 hPa - - - -
1777377366 17.22° C 56% 1021.1 hPa - - - -
1777376766 16.11° C 59% 1021 hPa - - - -
1777376166 15.56° C 59% 1021 hPa - - - -
1777375566 15° C 60% 1020.9 hPa - - - -
1777374966 14.44° C 63% 1020.7 hPa - - - -
1777374366 13.89° C 64% 1020.6 hPa - - - -
1777373766 13.33° C 64% 1020.5 hPa - - - -
1777373166 13.33° C 66% 1020.5 hPa - - - -

* Rain since midnight (hover to see other rain measurements)
** Current wind speed in m/s (hover to see current wind gust speed)